Location: Fort Wayne
(41.1310°N, 85.1290°W)
Time: 22:09:29
(UTC-05:00)

Meteor 2-10 Rocket - Visible Passes

Search period start: 02 March 2015 00:00
Search period end: 12 March 2015 01:00
Orbit: 735 x 885 km, 81.2° (Epoch: 01 March)

Date Brightness Start Highest point End Pass type
(mag) Time Alt. Az. Time Alt. Az. Time Alt. Az.
02 Mar 3.6 05:38:07 10° S 05:43:18 82° E 05:48:45 10° NNE visible
03 Mar 4.1 05:14:04 10° S 05:19:09 58° E 05:24:30 10° NNE visible
04 Mar 4.8 04:50:13 10° SSE 04:55:03 41° E 05:00:09 10° NNE visible
04 Mar 4.6 06:33:05 10° WSW 06:37:23 24° WNW 06:41:42 10° NNW visible
05 Mar 5.4 04:26:34 10° SSE 04:30:59 29° E 04:35:40 10° NNE visible
05 Mar 4.2 06:08:14 10° SW 06:13:00 33° WNW 06:17:54 10° N visible
06 Mar 5.9 04:03:10 10° SE 04:06:57 21° E 04:11:02 10° NE visible
06 Mar 3.8 05:44:03 12° SSW 05:48:41 46° WNW 05:53:58 10° N visible
07 Mar 6.2 03:40:11 10° ESE 03:42:57 15° E 03:46:02 10° NE visible
07 Mar 3.5 05:21:10 24° SSW 05:24:25 65° WNW 05:29:56 10° N visible
08 Mar 6.5 04:18:45 10° E 04:18:59 10° E 04:19:36 10° ENE visible
08 Mar 3.5 05:58:04 38° S 06:00:13 90° SE 06:05:49 10° N visible
09 Mar 3.9 05:34:48 49° SSE 05:36:04 65° E 05:41:36 10° NNE visible
09 Mar 5.1 07:16:00 12° W 07:18:50 17° WNW 07:22:10 10° NNW visible
10 Mar 4.5 05:11:25 44° ESE 05:11:57 46° E 05:17:17 10° NNE visible
10 Mar 4.8 06:52:36 20° W 06:54:23 23° WNW 06:58:39 10° NNW visible
11 Mar 5.1 04:47:56 33° E 04:47:56 33° E 04:52:51 10° NNE visible
11 Mar 4.4 06:29:07 30° W 06:29:59 31° WNW 06:34:53 10° N visible
